Location: Ferintosh
(52.7647°N, 112.9692°W)
Time: 18:02:25
(UTC+00:00)

Explorer 7 - Pass Details

Date: 21 May 2024
Orbit: 466 x 622 km, 50.3° (Epoch: 15 June)

Event Time Altitude Azimuth Distance (km) Brightness Sun altitude
Rises 08:03:23 0° 240° (WSW) 2,567 - -16.5°
Reaches altitude 10° 08:05:34 10° 234° (SW) 1,709 - -16.5°
Exits shadow 08:08:15 35° 202° (SSW) 841 7.2 -16.4°
Maximum altitude 08:09:16 44° 161° (SSE) 730 7.0 -16.4°
Drops below altitude 10° 08:13:10 10° 90° (E) 1,804 9.6 -16.3°
Sets 08:15:32 0° 84° (E) 2,730 10.6 -16.2°
